Time,TemperatureF,DewpointF,PressureIn,WindDirection,WindDirectionDegrees,WindSpeedMPH,WindSpeedGustMPH,Humidity,HourlyPrecipIn,Conditions,Clouds,dailyrainin,SoftwareType,DateUTC
2013-07-10 00:10:00,68.7,68.4,29.87,South,180,0.0,-999.0,99,-99.99,,,0.00,Acu-Link.com,2013-07-10 04:10:00,
2013-07-10 00:25:00,68.9,68.6,29.86,SSW,202,2.2,-999.0,99,-99.99,,,0.01,Acu-Link.com,2013-07-10 04:25:00,
2013-07-10 00:40:00,68.7,68.4,29.86,SW,225,1.7,-999.0,99,-99.99,,,0.02,Acu-Link.com,2013-07-10 04:40:00,
2013-07-10 00:55:00,68.5,68.2,29.84,SSW,202,0.0,-999.0,99,-99.99,,,0.05,Acu-Link.com,2013-07-10 04:55:00,
2013-07-10 01:11:00,68.7,68.4,29.83,SSW,202,0.0,-999.0,99,-99.99,,,0.06,Acu-Link.com,2013-07-10 05:11:00,
2013-07-10 01:26:00,68.7,68.4,29.83,SSW,202,3.2,-999.0,99,-99.99,,,0.07,Acu-Link.com,2013-07-10 05:26:00,
2013-07-10 01:41:00,68.5,68.2,29.83,ENE,67,0.0,-999.0,99,-99.99,,,0.08,Acu-Link.com,2013-07-10 05:41:00,
2013-07-10 01:56:00,68.5,68.2,29.82,SSW,202,2.7,-999.0,99,-99.99,,,0.08,Acu-Link.com,2013-07-10 05:56:00,
2013-07-10 02:11:00,68.5,68.2,29.81,WSW,247,1.1,-999.0,99,-99.99,,,0.08,Acu-Link.com,2013-07-10 06:11:00,
2013-07-10 02:27:00,68.5,68.2,29.80,SSW,202,2.7,-999.0,99,-99.99,,,0.08,Acu-Link.com,2013-07-10 06:27:00,
2013-07-10 02:42:00,68.5,68.2,29.79,WSW,247,0.0,-999.0,99,-99.99,,,0.08,Acu-Link.com,2013-07-10 06:42:00,
2013-07-10 02:57:00,68.4,68.1,29.78,ENE,67,0.0,-999.0,99,-99.99,,,0.08,Acu-Link.com,2013-07-10 06:57:00,
2013-07-10 03:13:00,68.2,67.9,29.78,East,90,0.0,-999.0,99,-99.99,,,0.08,Acu-Link.com,2013-07-10 07:13:00,
2013-07-10 03:28:00,68.2,67.9,29.77,ENE,67,0.0,-999.0,99,-99.99,,,0.08,Acu-Link.com,2013-07-10 07:28:00,
2013-07-10 03:43:00,68.0,67.7,29.78,NE,45,0.0,-999.0,99,-99.99,,,0.08,Acu-Link.com,2013-07-10 07:43:00,
2013-07-10 03:59:00,67.8,67.5,29.78,NE,45,0.0,-999.0,99,-99.99,,,0.08,Acu-Link.com,2013-07-10 07:59:00,
2013-07-10 04:14:00,67.8,67.5,29.78,SSW,202,1.1,-999.0,99,-99.99,,,0.08,Acu-Link.com,2013-07-10 08:14:00,
2013-07-10 04:29:00,67.6,67.3,29.79,SSW,202,0.0,-999.0,99,-99.99,,,0.08,Acu-Link.com,2013-07-10 08:29:00,
2013-07-10 04:44:00,67.5,67.2,29.79,SSW,202,0.0,-999.0,99,-99.99,,,0.08,Acu-Link.com,2013-07-10 08:44:00,
2013-07-10 04:59:00,67.5,67.2,29.80,SSW,202,0.0,-999.0,99,-99.99,,,0.08,Acu-Link.com,2013-07-10 08:59:00,
2013-07-10 05:14:00,67.1,66.8,29.80,WSW,247,0.0,-999.0,99,-99.99,,,0.08,Acu-Link.com,2013-07-10 09:14:00,
2013-07-10 05:29:00,67.1,66.8,29.80,SW,225,0.0,-999.0,99,-99.99,,,0.08,Acu-Link.com,2013-07-10 09:29:00,
2013-07-10 05:44:00,67.5,67.2,29.79,SW,225,0.0,-999.0,99,-99.99,,,0.08,Acu-Link.com,2013-07-10 09:44:00,
2013-07-10 06:00:00,68.0,67.7,29.79,SSW,202,0.0,-999.0,99,-99.99,,,0.08,Acu-Link.com,2013-07-10 10:00:00,
2013-07-10 06:15:00,67.8,67.5,29.80,SSW,202,0.0,-999.0,99,-99.99,,,0.08,Acu-Link.com,2013-07-10 10:15:00,
2013-07-10 06:30:00,68.0,67.7,29.80,SSW,202,2.2,-999.0,99,-99.99,,,0.08,Acu-Link.com,2013-07-10 10:30:00,
2013-07-10 06:45:00,68.0,67.7,29.80,SSW,202,0.0,-999.0,99,-99.99,,,0.08,Acu-Link.com,2013-07-10 10:45:00,
2013-07-10 07:01:00,68.2,67.9,29.79,NNE,22,0.0,-999.0,99,-99.99,,,0.08,Acu-Link.com,2013-07-10 11:01:00,
2013-07-10 07:16:00,68.4,68.1,29.80,SW,225,0.0,-999.0,99,-99.99,,,0.08,Acu-Link.com,2013-07-10 11:16:00,
2013-07-10 07:31:00,68.4,68.1,29.80,WNW,292,0.0,-999.0,99,-99.99,,,0.08,Acu-Link.com,2013-07-10 11:31:00,
2013-07-10 07:46:00,68.5,68.2,29.80,WNW,292,0.0,-999.0,99,-99.99,,,0.08,Acu-Link.com,2013-07-10 11:46:00,
2013-07-10 08:01:00,68.7,68.4,29.80,WNW,292,0.0,-999.0,99,-99.99,,,0.08,Acu-Link.com,2013-07-10 12:01:00,
2013-07-10 08:16:00,68.7,68.4,29.80,NNW,337,0.0,-999.0,99,-99.99,,,0.08,Acu-Link.com,2013-07-10 12:16:00,
2013-07-10 08:32:00,68.9,68.6,29.80,WSW,247,0.0,-999.0,99,-99.99,,,0.08,Acu-Link.com,2013-07-10 12:32:00,
2013-07-10 08:47:00,69.3,69.0,29.80,North,0,0.0,-999.0,99,-99.99,,,0.08,Acu-Link.com,2013-07-10 12:47:00,
2013-07-10 09:02:00,69.6,69.3,29.80,SSW,202,0.0,-999.0,99,-99.99,,,0.08,Acu-Link.com,2013-07-10 13:02:00,
2013-07-10 09:17:00,70.5,70.2,29.80,SSW,202,0.0,-999.0,99,-99.99,,,0.08,Acu-Link.com,2013-07-10 13:17:00,
2013-07-10 09:33:00,72.0,71.7,29.80,SSW,202,0.0,-999.0,99,-99.99,,,0.08,Acu-Link.com,2013-07-10 13:33:00,
2013-07-10 09:48:00,74.1,73.2,29.80,SW,225,0.0,-999.0,97,-99.99,,,0.08,Acu-Link.com,2013-07-10 13:48:00,
2013-07-10 10:03:00,74.5,73.3,29.80,SW,225,0.0,-999.0,96,-99.99,,,0.08,Acu-Link.com,2013-07-10 14:03:00,
2013-07-10 10:18:00,74.1,72.9,29.80,SW,225,0.0,-999.0,96,-99.99,,,0.08,Acu-Link.com,2013-07-10 14:18:00,
2013-07-10 10:33:00,74.1,73.2,29.80,SSW,202,2.7,-999.0,97,-99.99,,,0.08,Acu-Link.com,2013-07-10 14:33:00,
2013-07-10 10:49:00,74.1,73.2,29.80,SSW,202,1.7,-999.0,97,-99.99,,,0.08,Acu-Link.com,2013-07-10 14:49:00,
2013-07-10 11:04:00,74.5,73.3,29.80,SSW,202,0.0,-999.0,96,-99.99,,,0.08,Acu-Link.com,2013-07-10 15:04:00,
2013-07-10 11:19:00,74.1,73.2,29.80,SSW,202,2.7,-999.0,97,-99.99,,,0.08,Acu-Link.com,2013-07-10 15:19:00,
2013-07-10 11:35:00,74.1,73.5,29.80,SSW,202,2.7,-999.0,98,-99.99,,,0.08,Acu-Link.com,2013-07-10 15:35:00,
2013-07-10 11:50:00,75.4,73.5,29.80,SSW,202,3.7,-999.0,94,-99.99,,,0.08,Acu-Link.com,2013-07-10 15:50:00,
2013-07-10 12:05:00,76.8,74.6,29.80,SSW,202,3.2,-999.0,93,-99.99,,,0.08,Acu-Link.com,2013-07-10 16:05:00,
2013-07-10 12:20:00,76.3,74.4,29.79,SSW,202,3.2,-999.0,94,-99.99,,,0.08,Acu-Link.com,2013-07-10 16:20:00,
2013-07-10 12:35:00,76.3,74.1,29.78,SSW,202,3.2,-999.0,93,-99.99,,,0.08,Acu-Link.com,2013-07-10 16:35:00,
2013-07-10 12:51:00,77.0,74.5,29.78,SW,225,1.7,-999.0,92,-99.99,,,0.08,Acu-Link.com,2013-07-10 16:51:00,
2013-07-10 13:06:00,78.3,74.8,29.78,SSW,202,2.7,-999.0,89,-99.99,,,0.08,Acu-Link.com,2013-07-10 17:06:00,
2013-07-10 13:21:00,79.0,76.1,29.77,SSW,202,2.7,-999.0,91,-99.99,,,0.08,Acu-Link.com,2013-07-10 17:21:00,
2013-07-10 13:37:00,78.3,74.8,29.76,SSW,202,2.2,-999.0,89,-99.99,,,0.08,Acu-Link.com,2013-07-10 17:37:00,
2013-07-10 13:52:00,77.0,74.5,29.75,WSW,247,0.0,-999.0,92,-99.99,,,0.08,Acu-Link.com,2013-07-10 17:52:00,
2013-07-10 14:07:00,76.6,74.4,29.74,SSW,202,0.0,-999.0,93,-99.99,,,0.08,Acu-Link.com,2013-07-10 18:07:00,
2013-07-10 14:23:00,76.5,73.7,29.74,South,180,2.7,-999.0,91,-99.99,,,0.08,Acu-Link.com,2013-07-10 18:23:00,
2013-07-10 14:38:00,76.1,73.3,29.74,SW,225,2.7,-999.0,91,-99.99,,,0.08,Acu-Link.com,2013-07-10 18:38:00,
2013-07-10 14:53:00,75.2,73.0,29.74,SSW,202,3.2,-999.0,93,-99.99,,,0.08,Acu-Link.com,2013-07-10 18:53:00,
2013-07-10 15:08:00,75.4,72.9,29.73,SSW,202,3.7,-999.0,92,-99.99,,,0.08,Acu-Link.com,2013-07-10 19:08:00,
2013-07-10 15:24:00,76.1,73.3,29.73,SW,225,2.2,-999.0,91,-99.99,,,0.08,Acu-Link.com,2013-07-10 19:24:00,
2013-07-10 15:39:00,77.4,73.9,29.72,SSW,202,3.7,-999.0,89,-99.99,,,0.08,Acu-Link.com,2013-07-10 19:39:00,
2013-07-10 15:54:00,77.7,73.5,29.71,SSW,202,4.2,-999.0,87,-99.99,,,0.08,Acu-Link.com,2013-07-10 19:54:00,
2013-07-10 16:09:00,76.6,73.4,29.71,SW,225,1.1,-999.0,90,-99.99,,,0.08,Acu-Link.com,2013-07-10 20:09:00,
2013-07-10 16:25:00,78.6,75.1,29.71,SSW,202,3.2,-999.0,89,-99.99,,,0.08,Acu-Link.com,2013-07-10 20:25:00,
2013-07-10 16:40:00,78.1,73.6,29.71,SSW,202,3.7,-999.0,86,-99.99,,,0.08,Acu-Link.com,2013-07-10 20:40:00,
2013-07-10 16:55:00,77.7,74.5,29.70,SW,225,0.0,-999.0,90,-99.99,,,0.08,Acu-Link.com,2013-07-10 20:55:00,
2013-07-10 17:11:00,77.5,73.3,29.69,SW,225,2.7,-999.0,87,-99.99,,,0.08,Acu-Link.com,2013-07-10 21:11:00,
2013-07-10 17:26:00,76.5,73.0,29.70,SW,225,1.7,-999.0,89,-99.99,,,0.08,Acu-Link.com,2013-07-10 21:26:00,
2013-07-10 17:41:00,76.3,73.5,29.70,SSW,202,1.1,-999.0,91,-99.99,,,0.08,Acu-Link.com,2013-07-10 21:41:00,
2013-07-10 17:56:00,75.9,72.7,29.69,SSW,202,2.2,-999.0,90,-99.99,,,0.08,Acu-Link.com,2013-07-10 21:56:00,
2013-07-10 18:11:00,75.6,73.1,29.71,SSW,202,1.7,-999.0,92,-99.99,,,0.08,Acu-Link.com,2013-07-10 22:11:00,
2013-07-10 18:27:00,74.5,73.3,29.70,SSW,202,2.2,-999.0,96,-99.99,,,0.08,Acu-Link.com,2013-07-10 22:27:00,
2013-07-10 18:42:00,74.1,73.2,29.70,SW,225,0.0,-999.0,97,-99.99,,,0.08,Acu-Link.com,2013-07-10 22:42:00,
2013-07-10 18:57:00,73.6,73.0,29.71,WSW,247,0.0,-999.0,98,-99.99,,,0.08,Acu-Link.com,2013-07-10 22:57:00,
2013-07-10 19:12:00,73.4,73.1,29.70,East,90,0.0,-999.0,99,-99.99,,,0.08,Acu-Link.com,2013-07-10 23:12:00,
2013-07-10 19:28:00,72.9,72.6,29.70,WNW,292,0.0,-999.0,99,-99.99,,,0.08,Acu-Link.com,2013-07-10 23:28:00,
2013-07-10 19:43:00,72.7,72.4,29.70,SSW,202,1.7,-999.0,99,-99.99,,,0.09,Acu-Link.com,2013-07-10 23:43:00,
2013-07-10 19:58:00,72.5,72.2,29.71,WSW,247,0.0,-999.0,99,-99.99,,,0.12,Acu-Link.com,2013-07-10 23:58:00,
2013-07-10 20:13:00,71.1,70.8,29.72,NNW,337,0.0,-999.0,99,-99.99,,,0.15,Acu-Link.com,2013-07-11 00:13:00,
2013-07-10 20:28:00,71.1,70.8,29.72,WNW,292,0.0,-999.0,99,-99.99,,,0.16,Acu-Link.com,2013-07-11 00:28:00,
2013-07-10 20:44:00,70.0,69.7,29.73,NNW,337,0.0,-999.0,99,-99.99,,,0.17,Acu-Link.com,2013-07-11 00:44:00,
2013-07-10 20:59:00,69.1,68.8,29.73,SSW,202,0.0,-999.0,99,-99.99,,,0.19,Acu-Link.com,2013-07-11 00:59:00,
2013-07-10 21:14:00,67.8,67.5,29.72,West,270,0.0,-999.0,99,-99.99,,,0.19,Acu-Link.com,2013-07-11 01:14:00,
2013-07-10 21:29:00,67.5,67.2,29.71,North,0,0.0,-999.0,99,-99.99,,,0.19,Acu-Link.com,2013-07-11 01:29:00,
2013-07-10 21:44:00,67.3,67.0,29.70,NNE,22,0.0,-999.0,99,-99.99,,,0.19,Acu-Link.com,2013-07-11 01:44:00,
2013-07-10 22:00:00,67.6,67.3,29.71,WNW,292,0.0,-999.0,99,-99.99,,,0.19,Acu-Link.com,2013-07-11 02:00:00,
2013-07-10 22:15:00,67.5,67.2,29.72,WNW,292,0.0,-999.0,99,-99.99,,,0.19,Acu-Link.com,2013-07-11 02:15:00,
2013-07-10 22:30:00,67.5,67.2,29.72,WNW,292,0.0,-999.0,99,-99.99,,,0.19,Acu-Link.com,2013-07-11 02:30:00,
2013-07-10 22:46:00,67.3,67.0,29.72,WNW,292,0.0,-999.0,99,-99.99,,,0.19,Acu-Link.com,2013-07-11 02:46:00,
2013-07-10 23:01:00,67.5,67.2,29.72,SSW,202,1.7,-999.0,99,-99.99,,,0.19,Acu-Link.com,2013-07-11 03:01:00,
2013-07-10 23:16:00,67.3,67.0,29.72,SSW,202,0.0,-999.0,99,-99.99,,,0.19,Acu-Link.com,2013-07-11 03:16:00,
2013-07-10 23:31:00,67.3,67.0,29.72,SSW,202,1.7,-999.0,99,-99.99,,,0.19,Acu-Link.com,2013-07-11 03:31:00,
2013-07-10 23:47:00,68.2,67.9,29.70,SSW,202,2.2,-999.0,99,-99.99,,,0.19,Acu-Link.com,2013-07-11 03:47:00,